Volver al catálogo

STARLINK-35882

ActivoComunicacionesVLEO
NORAD 67088·PAYLOAD·🇺🇸 United States

Lanzado Dec 14, 2025 desde Vandenberg Space Force Base

Loading…

Próximos Pases (próximas 24 horas)

TLE

ActualizadoSource: CelesTrak SupGP

Época: Sep 15, 2026, 03:52 UTC

1 67088C 25298P   26258.16159722 -.00044651  00000+0 -37418-2 0  2585
2 67088  69.9997 256.8999 0004004 267.4906 107.5118 14.98351830    16

Sigue STARLINK-35882 en tiempo real con AllMySat

Download on the App Store